KI4FRU Weather Reports


time (UTC)temp
C
wind
direction
speed
KPH
gust
KPH
rain 1hr
cm
rain 24hr
cm
rain mn
cm
humidity
%
barometer
mb
20260906060721 22 254 0.0 0.0 0.00 0.00 0.00 99 1051.9
20260906060218 22 255 0.0 0.0 0.00 0.00 0.00 99 1051.8
20260906055713 22 253 0.0 0.0 0.00 0.00 0.00 99 1052.0
20260906055209 22 255 0.0 0.0 0.00 0.00 0.00 99 1051.8
20260906054703 22 255 0.0 0.0 0.00 0.00 0.00 99 1052.0
20260906054159 22 256 0.0 0.0 0.00 0.00 0.00 99 1051.8
20260906053655 22 256 0.0 0.0 0.00 0.00 0.00 99 1052.1
20260906053150 22 256 0.0 0.0 0.00 0.00 0.00 99 1052.1
20260906052645 22 255 0.0 0.0 0.00 0.00 0.00 99 1051.9
20260906052142 22 256 0.0 0.0 0.00 0.00 0.00 99 1051.9
20260906051638 22 256 0.0 0.0 0.00 0.00 0.00 99 1052.1
20260906051137 22 256 0.0 0.0 0.00 0.00 0.00 99 1052.0
20260906050633 22 257 0.0 0.0 0.00 0.00 0.00 99 1052.3
20260906050128 22 257 0.0 0.0 0.00 0.00 0.00 99 1052.2
20260906045626 22 256 0.0 0.0 0.00 0.00 0.00 99 1052.3
20260906045122 22 255 0.0 0.0 0.00 0.00 0.00 99 1052.1
20260906044618 22 255 0.0 0.0 0.00 0.00 0.00 99 1052.4
20260906044113 22 256 0.0 0.0 0.00 0.00 0.00 99 1052.5
20260906043609 22 256 0.0 0.0 0.00 0.00 0.00 99 1052.5
20260906043104 22 255 0.0 0.0 0.00 0.00 0.00 99 1052.5
20260906042604 22 254 0.0 0.0 0.00 0.00 0.00 99 1052.5
20260906042058 22 256 0.0 0.0 0.00 0.00 0.00 99 1052.4
20260906041554 22 256 0.0 0.0 0.00 0.00 0.00 99 1052.2
20260906041049 22 256 0.0 0.0 0.00 0.00 0.00 99 1052.3
20260906040544 22 254 0.0 0.0 0.00 0.00 0.00 99 1052.3
20260906040040 22 254 0.0 0.0 0.00 0.00 0.00 99 1052.5
20260906035535 22 255 0.0 0.0 0.00 0.00 0.00 99 1052.5
20260906035031 22 256 0.0 0.0 0.00 0.00 0.00 99 1052.7
20260906034530 22 256 0.0 0.0 0.00 0.00 0.00 99 1052.5
20260906034026 22 257 0.0 0.0 0.00 0.00 0.00 99 1052.7
20260906033521 22 237 1.6 1.6 0.00 0.00 0.00 99 1052.6
20260906033016 22 255 0.0 0.0 0.00 0.00 0.00 99 1052.6
20260906032512 22 255 0.0 0.0 0.00 0.00 0.00 99 1052.7
20260906032007 22 255 0.0 0.0 0.00 0.00 0.00 99 1052.8
20260906031503 22 256 0.0 0.0 0.00 0.00 0.00 99 1052.5
20260906030957 22 254 0.0 0.0 0.00 0.00 0.00 99 1052.5
20260906030451 22 252 0.0 0.0 0.00 0.00 0.00 99 1052.4
20260906025946 22 254 0.0 0.0 0.00 0.00 0.00 99 1052.3
20260906025440 22 254 0.0 0.0 0.00 0.00 0.00 99 1052.2
20260906024939 22 254 0.0 0.0 0.00 0.00 0.00 99 1052.4
20260906024438 22 259 0.0 0.0 0.00 0.00 0.00 99 1052.4
20260906023933 22 254 0.0 0.0 0.00 0.00 0.00 99 1052.2
20260906023429 22 253 0.0 0.0 0.00 0.00 0.00 99 1052.4
20260906022924 22 255 0.0 0.0 0.00 0.00 0.00 99 1052.4
20260906022420 22 255 0.0 0.0 0.00 0.00 0.00 99 1052.2
20260906021915 22 252 0.0 0.0 0.00 0.00 0.00 99 1052.3
20260906021414 22 255 0.0 0.0 0.00 0.00 0.00 99 1052.2
20260906020909 22 255 0.0 0.0 0.00 0.00 0.00 99 1052.1
20260906020403 22 255 0.0 0.0 0.00 0.00 0.00 99 1052.2
20260906015858 22 254 0.0 0.0 0.00 0.00 0.00 99 1052.1
20260906015356 23 254 0.0 0.0 0.00 0.00 0.00 99 1052.1
20260906014851 23 253 0.0 0.0 0.00 0.00 0.00 99 1052.1
20260906014351 23 254 0.0 0.0 0.00 0.00 0.00 99 1052.0
20260906013847 23 254 0.0 0.0 0.00 0.00 0.00 99 1052.2
20260906013343 23 254 0.0 0.0 0.00 0.00 0.00 99 1052.4
20260906012838 23 255 0.0 0.0 0.00 0.00 0.00 99 1052.1
20260906012333 23 254 0.0 0.0 0.00 0.00 0.00 99 1052.1
20260906011832 23 255 0.0 0.0 0.00 0.00 0.00 99 1052.0
20260906011328 23 255 0.0 0.0 0.00 0.00 0.00 99 1051.8
20260906010824 23 254 0.0 0.0 0.00 0.00 0.00 99 1051.8
20260906010320 23 253 0.0 0.0 0.00 0.00 0.00 99 1051.9
20260906005815 23 253 0.0 0.0 0.00 0.00 0.00 99 1051.7
20260906005313 23 255 0.0 0.0 0.00 0.00 0.00 99 1051.9
20260906004813 24 254 0.0 0.0 0.00 0.00 0.00 99 1051.8
20260906004313 24 254 0.0 0.0 0.00 0.00 0.00 99 1051.8
20260906003808 24 255 0.0 0.0 0.00 0.00 0.00 99 1051.6
20260906003303 24 255 0.0 0.0 0.00 0.00 0.00 99 1051.5
20260906002759 25 255 0.0 0.0 0.00 0.00 0.00 99 1051.4
20260906002258 25 254 0.0 0.0 0.00 0.00 0.00 99 1051.3
20260906001754 25 254 0.0 0.0 0.00 0.00 0.00 99 1051.2
20260906001248 25 255 0.0 0.0 0.00 0.00 0.00 99 1051.2
20260906000743 25 254 0.0 0.0 0.00 0.00 0.00 99 1051.1
20260906000238 25 255 0.0 0.0 0.00 0.00 0.00 98 1050.9
20260905235733 25 253 0.0 0.0 0.00 0.00 0.00 98 1050.8
20260905235233 25 255 0.0 0.0 0.00 0.00 0.00 97 1050.8
20260905234729 26 255 0.0 0.0 0.00 0.00 0.00 96 1050.8
20260905234224 26 255 0.0 0.0 0.00 0.00 0.00 95 1050.9
20260905233719 26 255 0.0 0.0 0.00 0.00 0.00 94 1050.7
20260905233218 27 254 0.0 0.0 0.00 0.00 0.00 92 1050.9
20260905232713 27 253 0.0 0.0 0.00 0.00 0.00 91 1050.9
20260905232209 27 253 0.0 0.0 0.00 0.00 0.00 90 1050.9
20260905231705 27 251 0.0 0.0 0.00 0.00 0.00 88 1050.6
20260905231200 27 261 0.0 0.0 0.00 0.00 0.00 86 1050.8
20260905230656 28 253 0.0 0.0 0.00 0.00 0.00 86 1050.6
20260905230154 28 253 0.0 0.0 0.00 0.00 0.00 86 1050.8
20260905225653 28 244 0.0 0.0 0.00 0.00 0.00 86 1050.6
20260905225148 28 245 0.0 0.0 0.00 0.00 0.00 85 1050.4
20260905224648 28 243 0.0 0.0 0.00 0.00 0.00 85 1050.4
20260905224142 28 266 0.0 1.6 0.00 0.00 0.00 84 1050.7
20260905223639 28 225 0.0 0.0 0.00 0.00 0.00 84 1050.7
20260905223136 28 259 0.0 0.0 0.00 0.00 0.00 83 1050.8
20260905222630 28 260 0.0 0.0 0.00 0.00 0.00 83 1050.8
20260905222120 28 257 0.0 3.2 0.00 0.00 0.00 83 1050.7
20260905221616 28 258 0.0 0.0 0.00 0.00 0.00 82 1050.8
20260905221112 29 247 0.0 0.0 0.00 0.00 0.00 80 1050.9
20260905220607 30 214 0.0 0.0 0.00 0.00 0.00 80 1050.9
20260905220104 30 220 0.0 0.0 0.00 0.00 0.00 78 1050.9
20260905215603 30 270 0.0 1.6 0.00 0.00 0.00 77 1051.2
20260905215059 31 232 0.0 0.0 0.00 0.00 0.00 77 1051.1
20260905214554 30 204 0.0 1.6 0.00 0.00 0.00 78 1051.3
20260905214049 30 230 0.0 0.0 0.00 0.00 0.00 81 1051.4
20260905213544 30 181 0.0 1.6 0.00 0.00 0.00 78 1051.2
20260905213039 30 233 0.0 0.0 0.00 0.00 0.00 81 1051.6
20260905212534 30 247 0.0 0.0 0.00 0.00 0.00 81 1051.4
20260905212033 30 242 0.0 0.0 0.00 0.00 0.00 81 1051.4
20260905211529 30 244 0.0 3.2 0.00 0.00 0.00 80 1051.6
20260905211025 30 247 0.0 0.0 0.00 0.00 0.00 82 1051.6
20260905210520 30 255 0.0 0.0 0.00 0.00 0.00 82 1051.4
20260905210020 30 245 0.0 0.0 0.00 0.00 0.00 86 1051.5
20260905205515 29 240 0.0 0.0 0.00 0.00 0.00 86 1051.7
20260905205014 29 260 0.0 1.6 0.00 0.00 0.00 85 1051.5
20260905204508 28 255 0.0 0.0 0.00 0.00 0.00 88 1051.3
20260905204003 28 43 0.0 0.0 0.00 0.00 0.00 89 1051.8
20260905203458 28 83 0.0 0.0 0.00 0.00 0.00 87 1051.6
20260905202953 27 79 0.0 0.0 0.00 0.00 0.00 90 1051.5
20260905202448 27 80 0.0 0.0 0.00 0.00 0.00 89 1051.7
20260905201943 27 78 0.0 0.0 0.00 0.00 0.00 88 1051.8
20260905201439 27 240 0.0 0.0 0.00 0.00 0.00 88 1051.8
20260905200933 27 257 0.0 0.0 0.00 0.00 0.00 88 1051.6
20260905200429 27 242 0.0 0.0 0.00 0.00 0.00 89 1051.7
20260905195927 27 194 0.0 0.0 0.00 0.00 0.00 91 1051.8
20260905195422 27 187 0.0 0.0 0.00 0.00 0.00 89 1051.8
20260905194918 27 187 0.0 0.0 0.00 0.00 0.00 91 1051.9
20260905194417 27 187 0.0 0.0 0.00 0.00 0.00 90 1052.2
20260905193917 27 186 0.0 1.6 0.00 0.00 0.00 87 1052.2
20260905193412 27 187 0.0 0.0 0.00 0.00 0.00 86 1052.0
20260905192908 27 185 1.6 1.6 0.00 0.00 0.00 87 1052.0
20260905192403 27 237 0.0 0.0 0.00 0.00 0.00 88 1052.1
20260905191903 27 250 0.0 0.0 0.00 0.00 0.00 88 1052.0
20260905191402 27 262 0.0 1.6 0.00 0.00 0.00 87 1052.0
20260905190901 27 209 0.0 0.0 0.00 0.00 0.00 87 1051.7
20260905190354 27 198 1.6 1.6 0.00 0.00 0.00 84 1051.4
20260905185854 27 202 0.0 0.0 0.00 0.00 0.00 86 1051.3
20260905185349 27 203 0.0 1.6 0.00 0.00 0.00 86 1051.4
20260905184848 27 209 0.0 0.0 0.00 0.00 0.00 86 1051.5
20260905184348 26 184 1.6 1.6 0.00 0.00 0.00 82 1051.2
20260905183846 26 186 0.0 1.6 0.00 0.00 0.00 85 1051.3
20260905183342 27 315 0.0 0.0 0.00 0.00 0.00 86 1051.4
20260905182841 27 325 0.0 1.6 0.00 0.00 0.00 85 1051.6
20260905182336 26 312 0.0 0.0 0.00 0.00 0.00 84 1052.0
20260905181831 27 315 0.0 0.0 0.00 0.00 0.00 83 1052.6
20260905181331 27 8 0.0 1.6 0.00 0.00 0.00 83 1052.5
20260905180830 27 294 0.0 0.0 0.00 0.00 0.00 82 1052.3
20260905180325 28 18 0.0 1.6 0.00 0.00 0.00 81 1052.2
20260905175820 28 25 0.0 0.0 0.00 0.00 0.00 76 1052.5
20260905175314 28 25 0.0 1.6 0.00 0.00 0.00 74 1052.9
20260905174810 28 70 0.0 3.2 0.00 0.00 0.00 71 1052.8
20260905174306 30 15 6.4 9.7 0.00 0.00 0.00 66 1053.2
20260905173801 34 14 3.2 17.7 0.00 0.00 0.00 61 1053.4
20260905173257 35 206 0.0 3.2 0.00 0.00 0.00 69 1052.9
20260905172757 35 258 0.0 1.6 0.00 0.00 0.00 67 1052.6
20260905172255 36 251 0.0 3.2 0.00 0.00 0.00 67 1052.7
20260905171752 35 269 3.2 3.2 0.00 0.00 0.00 64 1052.9
20260905171248 35 215 0.0 1.6 0.00 0.00 0.00 65 1052.7
20260905170744 35 212 0.0 1.6 0.00 0.00 0.00 72 1052.9
20260905170240 35 225 0.0 0.0 0.00 0.00 0.00 70 1053.0
20260905165738 36 208 0.0 1.6 0.00 0.00 0.00 67 1053.0
20260905165234 35 225 0.0 0.0 0.00 0.00 0.00 66 1053.0
20260905164734 36 287 1.6 3.2 0.00 0.00 0.00 65 1053.2
20260905164228 36 222 0.0 1.6 0.00 0.00 0.00 68 1052.9
20260905163725 33 137 0.0 0.0 0.00 0.00 0.00 69 1052.9
20260905163220 35 222 0.0 0.0 0.00 0.00 0.00 71 1053.2
20260905162717 35 210 0.0 1.6 0.00 0.00 0.00 70 1053.4
20260905162216 35 244 0.0 1.6 0.00 0.00 0.00 68 1053.3
20260905161711 34 216 0.0 0.0 0.00 0.00 0.00 76 1053.5
20260905161209 33 272 0.0 1.6 0.00 0.00 0.00 75 1053.6
20260905160708 34 240 0.0 1.6 0.00 0.00 0.00 74 1053.7
20260905160208 33 222 0.0 1.6 0.00 0.00 0.00 76 1053.7
20260905155703 33 182 0.0 1.6 0.00 0.00 0.00 75 1053.6
20260905155202 32 216 0.0 0.0 0.00 0.00 0.00 79 1053.6
20260905154655 32 259 0.0 3.2 0.00 0.00 0.00 75 1053.6
20260905154151 31 268 0.0 3.2 0.00 0.00 0.00 82 1053.5
20260905153641 31 209 0.0 1.6 0.00 0.00 0.00 81 1053.5
20260905153136 31 226 0.0 1.6 0.00 0.00 0.00 87 1053.4
20260905152631 31 185 1.6 1.6 0.00 0.00 0.00 85 1053.3
20260905152126 30 197 0.0 1.6 0.00 0.00 0.00 87 1053.4
20260905151621 30 207 0.0 0.0 0.00 0.00 0.00 87 1053.4
20260905151116 30 198 0.0 0.0 0.00 0.00 0.00 89 1053.2
20260905150612 30 199 0.0 0.0 0.00 0.00 0.00 91 1053.4
20260905150109 30 201 0.0 1.6 0.00 0.00 0.00 91 1053.4
20260905145603 30 200 0.0 1.6 0.00 0.00 0.00 95 1053.4
20260905145102 29 200 0.0 1.6 0.00 0.00 0.00 92 1053.5
20260905144557 29 200 0.0 1.6 0.00 0.00 0.00 94 1053.5
20260905144055 29 208 0.0 0.0 0.00 0.00 0.00 95 1053.5
20260905143550 28 212 0.0 0.0 0.00 0.00 0.00 96 1053.7
20260905143045 28 221 0.0 0.0 0.00 0.00 0.00 96 1053.5
20260905142544 28 262 0.0 0.0 0.00 0.00 0.00 96 1053.7
20260905142038 28 259 0.0 0.0 0.00 0.00 0.00 97 1053.5
20260905141533 28 244 0.0 1.6 0.00 0.00 0.00 96 1053.3
20260905141029 27 254 0.0 0.0 0.00 0.00 0.00 97 1053.4
20260905140524 27 232 0.0 1.6 0.00 0.00 0.00 97 1053.4
20260905140023 27 258 0.0 0.0 0.00 0.00 0.00 99 1053.4
20260905135519 27 276 0.0 3.2 0.00 0.00 0.00 99 1053.4
20260905135013 26 227 0.0 0.0 0.00 0.00 0.00 99 1053.7
20260905134508 26 246 0.0 0.0 0.00 0.00 0.00 99 1053.8
20260905134007 26 225 0.0 0.0 0.00 0.00 0.00 99 1053.7
20260905133502 26 220 0.0 1.6 0.00 0.00 0.00 99 1053.6
20260905132956 25 237 0.0 0.0 0.00 0.00 0.00 99 1053.6
20260905132451 25 233 0.0 0.0 0.00 0.00 0.00 99 1053.7
20260905131945 25 241 0.0 0.0 0.00 0.00 0.00 99 1053.7
20260905131442 24 245 0.0 0.0 0.00 0.00 0.00 99 1053.6
20260905130936 24 267 0.0 1.6 0.00 0.00 0.00 99 1053.8
20260905130436 24 232 0.0 0.0 0.00 0.00 0.00 99 1053.6
20260905125935 24 232 0.0 0.0 0.00 0.00 0.00 99 1053.7
20260905125431 23 232 0.0 0.0 0.00 0.00 0.00 99 1053.8
20260905124926 23 232 0.0 0.0 0.00 0.00 0.00 99 1054.0
20260905124423 23 232 0.0 0.0 0.00 0.00 0.00 99 1053.8
20260905123922 23 232 0.0 0.0 0.00 0.00 0.00 99 1054.0
20260905123419 23 229 0.0 0.0 0.00 0.00 0.00 99 1053.8
20260905122914 23 229 0.0 0.0 0.00 0.00 0.00 99 1053.8
20260905122414 23 234 0.0 0.0 0.00 0.00 0.00 99 1053.6
20260905121910 23 234 0.0 0.0 0.00 0.00 0.00 99 1053.7
20260905121405 23 234 0.0 0.0 0.00 0.00 0.00 99 1053.6
20260905120904 22 234 0.0 0.0 0.00 0.00 0.00 99 1053.8
20260905120404 22 234 0.0 0.0 0.00 0.00 0.00 99 1053.5
20260905115859 22 234 0.0 0.0 0.00 0.00 0.00 99 1053.4
20260905115358 22 234 0.0 0.0 0.00 0.00 0.00 99 1053.6
20260905114853 22 234 0.0 0.0 0.00 0.00 0.00 99 1053.6
20260905114352 22 234 0.0 0.0 0.00 0.00 0.00 99 1053.5
20260905113846 22 235 0.0 0.0 0.00 0.00 0.00 99 1053.4
20260905113342 22 235 0.0 0.0 0.00 0.00 0.00 99 1053.3
20260905112837 22 236 0.0 0.0 0.00 0.00 0.00 99 1053.3
20260905112331 22 236 0.0 0.0 0.00 0.00 0.00 99 1053.2
20260905111826 22 236 0.0 0.0 0.00 0.00 0.00 99 1053.2
20260905111321 22 236 0.0 0.0 0.00 0.00 0.00 99 1053.1
20260905110820 22 236 0.0 0.0 0.00 0.00 0.00 99 1053.1
20260905110314 22 236 0.0 0.0 0.00 0.00 0.00 99 1053.0
20260905105810 22 236 0.0 0.0 0.00 0.00 0.00 99 1052.9
20260905105309 22 236 0.0 0.0 0.00 0.00 0.00 99 1052.9
20260905104803 22 236 0.0 0.0 0.00 0.00 0.00 99 1052.8
20260905104300 22 236 0.0 0.0 0.00 0.00 0.00 99 1052.7
20260905103800 22 236 0.0 0.0 0.00 0.00 0.00 99 1052.8
20260905103255 22 236 0.0 0.0 0.00 0.00 0.00 99 1052.7
20260905102750 22 236 0.0 0.0 0.00 0.00 0.00 99 1052.7
20260905102247 22 236 0.0 0.0 0.00 0.00 0.00 99 1052.8
20260905101741 22 236 0.0 0.0 0.00 0.00 0.00 99 1052.7
20260905101239 22 236 0.0 0.0 0.00 0.00 0.00 99 1052.6
20260905100734 22 236 0.0 0.0 0.00 0.00 0.00 99 1052.7
20260905100230 22 236 0.0 0.0 0.00 0.00 0.00 99 1052.5
20260905095724 22 236 0.0 0.0 0.00 0.00 0.00 99 1052.6
20260905095224 22 236 0.0 0.0 0.00 0.00 0.00 99 1052.5
20260905094718 22 236 0.0 0.0 0.00 0.00 0.00 99 1052.5
20260905094213 22 236 0.0 0.0 0.00 0.00 0.00 99 1052.5
20260905093707 22 236 0.0 0.0 0.00 0.00 0.00 99 1052.6
20260905093204 22 236 0.0 0.0 0.00 0.00 0.00 99 1052.7
20260905092659 22 236 0.0 0.0 0.00 0.00 0.00 99 1052.6
20260905092154 22 236 0.0 0.0 0.00 0.00 0.00 99 1052.5
20260905091654 22 236 0.0 0.0 0.00 0.00 0.00 99 1052.7
20260905091154 22 236 0.0 0.0 0.00 0.00 0.00 99 1052.7
20260905090654 22 236 0.0 0.0 0.00 0.00 0.00 99 1052.7
20260905090150 22 236 0.0 0.0 0.00 0.00 0.00 99 1052.6
20260905085648 22 236 0.0 0.0 0.00 0.00 0.00 99 1052.5
20260905085143 23 236 0.0 0.0 0.00 0.00 0.00 99 1052.6
20260905084643 22 236 0.0 0.0 0.00 0.00 0.00 99 1052.9
20260905084138 22 237 0.0 0.0 0.00 0.00 0.00 99 1052.8
20260905083632 22 238 0.0 0.0 0.00 0.00 0.00 99 1052.8
20260905083129 22 264 0.0 0.0 0.00 0.00 0.00 99 1052.8
20260905082624 22 208 0.0 0.0 0.00 0.00 0.00 99 1052.8
20260905082120 22 208 0.0 0.0 0.00 0.00 0.00 99 1052.7
20260905081620 23 208 0.0 0.0 0.00 0.00 0.00 99 1052.8
20260905081114 23 208 0.0 0.0 0.00 0.00 0.00 99 1052.9
20260905080615 23 208 0.0 0.0 0.00 0.00 0.00 99 1053.0
20260905080109 23 208 0.0 0.0 0.00 0.00 0.00 99 1053.0
20260905075608 23 208 0.0 0.0 0.00 0.00 0.00 99 1053.5
20260905075102 23 208 0.0 0.0 0.00 0.00 0.00 99 1053.2
20260905074601 23 208 0.0 0.0 0.00 0.00 0.00 99 1053.2
20260905074057 23 208 0.0 0.0 0.00 0.00 0.00 99 1053.4
20260905073553 23 208 0.0 0.0 0.00 0.00 0.00 99 1053.3
20260905073048 23 208 0.0 0.0 0.00 0.00 0.00 99 1053.2
20260905072547 23 208 0.0 0.0 0.00 0.00 0.00 99 1053.4
20260905072043 23 208 0.0 0.0 0.00 0.00 0.00 99 1053.4
20260905071540 23 208 0.0 0.0 0.00 0.00 0.00 99 1053.4
20260905071034 23 208 0.0 0.0 0.00 0.00 0.00 99 1053.4
20260905070530 23 208 0.0 0.0 0.00 0.00 0.00 99 1053.6
20260905070026 23 208 0.0 0.0 0.00 0.00 0.00 99 1053.5
20260905065523 23 208 0.0 0.0 0.00 0.00 0.00 99 1053.5
20260905065019 23 208 0.0 0.0 0.00 0.00 0.00 99 1053.6
20260905064513 23 208 0.0 0.0 0.00 0.00 0.00 99 1053.7
20260905064008 23 208 0.0 0.0 0.00 0.00 0.00 99 1053.8
20260905063502 23 208 0.0 0.0 0.00 0.00 0.00 99 1053.8
20260905062959 23 208 0.0 0.0 0.00 0.00 0.00 99 1054.0
20260905062458 23 208 0.0 0.0 0.00 0.00 0.00 99 1053.8
20260905061953 23 208 0.0 0.0 0.00 0.00 0.00 99 1053.8
20260905061448 23 208 0.0 0.0 0.00 0.00 0.00 99 1054.1